Location: *
(33.0789°N, 6.6639°W)
Time: 01:07:27
(UTC+00:00)

Daily predictions for brighter satellites

Satellite Brightness Start Highest point End
(mag) Time Altitude Azimuth Time Altitude Azimuth Time Altitude Azimuth
CENTAUR R/B 4.0 02:59:40 29° NNE 02:59:40 29° NNE 03:02:54 10° NNE
ADEOS II 4.4 03:09:21 10° N 03:10:24 16° N 03:10:24 16° N
Cosmos 2369 Rocket 4.1 03:34:40 19° N 03:34:40 19° N 03:36:27 10° N
SeaSat 1 4.1 03:27:08 10° NE 03:31:17 28° ESE 03:31:17 28° ESE
CZ-3 R/B 4.3 02:34:43 10° W 03:37:39 75° SSW 03:50:54 10° ESE
Cosmos 2026 Rocket 3.9 03:51:22 74° SSE 03:51:57 83° E 03:58:19 10° N
Yuri Rocket 4.2 03:56:32 46° SE 03:56:32 46° SE 04:01:52 10° E
ADEOS 3.8 03:50:54 10° NNE 03:56:06 63° ESE 03:56:33 60° SE
USA 215 3.8 03:55:35 10° NE 04:01:55 51° SE 04:04:36 33° S
OAO 2 Rocket 3.4 04:06:17 68° ESE 04:06:17 68° ESE 04:10:40 10° ENE
Meteor 1-27 Rocket 3.9 04:04:01 37° S 04:06:24 72° E 04:12:12 10° NNE
ATLAS 3B R/B 4.0 04:08:26 23° NW 04:08:26 23° NW 04:12:57 10° N
Cosmos 1812 4.2 04:10:46 32° NNE 04:10:46 32° NNE 04:12:55 10° N
Atlas Centaur 2 2.6 04:08:54 55° SSW 04:09:19 56° SSW 04:16:46 10° ESE
Cosmos 1943 Rocket 4.4 04:12:41 11° NNW 04:12:41 11° NNW 04:13:07 10° NNW
SL-4 R/B 3.7 04:12:02 23° NNE 04:12:36 24° NE 04:15:37 10° E
Cosmos 44 Rocket 3.2 04:15:04 83° WSW 04:15:13 86° WNW 04:20:13 10° NNE
Meteor 1-10 Rocket 4.4 04:16:46 53° WNW 04:16:46 53° WNW 04:22:15 10° N
Cosmos 1655 Rocket 4.3 04:12:50 10° S 04:18:59 66° E 04:25:11 10° NNE
Cosmos 773 Rocket 3.9 04:20:32 62° WNW 04:20:32 62° WNW 04:25:34 10° N
PSLV R/B 3.6 04:17:57 10° N 04:21:52 67° NNW 04:21:52 67° NNW
Cosmos 1315 Rocket 3.1 04:23:58 59° NNW 04:23:58 59° NNW 04:27:24 10° N
Hubble Space Telescope 2.1 04:25:56 29° SSE 04:25:56 29° SSE 04:28:38 10° SE
Cosmos 1733 Rocket 4.0 04:20:56 10° NNW 04:23:43 36° NNW 04:23:43 36° NNW
Cosmos 1428 Rocket 4.5 04:23:57 44° SW 04:25:45 60° W 04:31:58 10° N
Meteor 1-11 Rocket 3.6 04:23:39 10° N 04:29:14 85° E 04:34:44 10° S
OAO 3 Rocket 3.5 04:29:58 45° S 04:30:43 51° SSE 04:35:13 10° E
USA 81 4.2 04:34:42 46° WSW 04:35:30 50° W 04:40:38 10° N
IDEFIX/ARIANE 42P 2.6 04:32:34 10° N 04:37:44 56° WNW 04:39:34 37° SW
Cosmos 1666 4.4 04:38:05 10° NNE 04:41:33 34° E 04:45:02 10° SSE
Lacrosse 5 rocket 2.4 04:44:15 31° SSW 04:44:15 31° SSW 04:47:18 10° S
Cosmos 1340 2.6 04:40:04 10° N 04:43:51 84° E 04:47:37 10° S
Lacrosse 5 3.7 04:39:57 10° NNW 04:44:22 29° NE 04:48:45 10° ESE
CZ-2C R/B 2.8 04:39:53 10° NNE 04:44:51 67° ESE 04:49:55 10° S
CENTAUR R/B 4.4 04:46:52 12° NW 04:48:25 13° NW 04:51:26 10° N
Cosmos 1680 Rocket 4.2 04:43:55 10° S 04:49:03 55° ESE 04:54:09 10° NNE
Chunghua 1 4.3 04:48:42 56° WSW 04:49:20 73° SSW 04:53:00 10° ESE
ASTRO E2 2.6 04:48:44 48° WSW 04:49:40 70° S 04:53:38 10° E
Cosmos 923 Rocket 4.1 04:44:44 10° S 04:50:03 78° ESE 04:55:24 10° NNE
Meteor 1-31 Rocket 3.1 04:47:45 10° NNE 04:51:38 65° E 04:55:27 10° S
Shenzhou-11 Module 1.9 04:53:26 58° NNW 04:53:26 58° NNW 04:56:03 10° NE
SJ-6F 4.3 04:49:57 10° N 04:54:09 81° WNW 04:58:19 10° SSW
Abrixas rocket 3.4 04:56:24 21° S 04:57:48 33° SE 05:00:34 10° ENE
Cosmos 2266 Rocket 3.9 04:53:18 10° S 04:59:25 89° W 05:05:29 10° N
Cosmos 1782 Rocket 4.2 04:56:08 10° N 05:00:28 59° E 05:04:49 10° SSE
OAO 1 Rocket 4.5 05:02:22 24° W 05:05:38 69° SSW 05:10:56 10° ESE
Cosmos 1703 Rocket 3.8 05:02:56 11° SSW 05:06:59 47° W 05:11:15 10° N
SeaSat 1 3.3 05:04:30 10° N 05:08:46 30° WNW 05:11:05 21° WSW
Cosmos 1346 Rocket 3.2 05:05:12 10° NNW 05:09:02 40° W 05:12:50 10° SSW
Cosmos 1536 3.2 05:07:58 10° NNW 05:11:41 39° W 05:15:23 10° SSW
H-2A R/B 3.5 05:10:01 10° NNW 05:12:59 22° WNW 05:13:32 21° W
Helios 1A Rocket 4.5 05:10:13 10° NNE 05:14:02 38° E 05:17:51 10° SSE
Cosmos 2227 Rocket 4.4 05:11:33 10° N 05:16:24 28° ENE 05:21:13 10° ESE
Cosmos 2084 Rocket 3.5 05:13:45 10° NW 05:18:02 55° WSW 05:22:14 10° SSE
Cosmos 1484 Rocket 3.6 05:14:52 10° NNE 05:18:30 50° E 05:22:04 10° S
Cosmos 2221 Rocket 3.7 05:15:18 10° S 05:19:41 80° E 05:24:06 10° N
Cosmos 2219 4.0 05:14:39 10° N 05:20:13 54° ENE 05:25:42 10° SE
Sich 1 Rocket 3.7 05:16:46 10° N 05:21:15 84° E 05:25:45 10° S
Cosmos 2297 Rocket 3.9 05:21:45 10° N 05:26:58 37° ENE 05:32:08 10° SE
Okean 1-7 3.7 05:23:25 10° SW 05:27:22 33° W 05:31:21 10° NNW
ALOS 3.9 05:25:23 10° NNE 05:29:44 38° E 05:34:03 10° SSE
CZ-4B DEB 4.4 05:28:25 10° NNE 05:33:58 81° ESE 05:39:26 10° S
Cosmos 2369 4.3 05:30:32 10° S 05:36:06 63° ESE 05:41:40 10° NNE
CZ-4B R/B 3.9 05:34:23 10° N 05:38:25 33° WNW 05:42:22 10° SW
Cosmos 2315 Rocket 4.0 05:36:29 10° N 05:42:42 81° W 05:48:55 10° S
USA 215 3.9 05:38:45 10° NNE 05:44:44 40° NW 05:50:44 10° WSW
COSMO-SKYMED 1 2.9 05:40:28 10° SSE 05:44:47 74° ENE 05:49:07 10° N
Cosmos 1980 Rocket 4.0 05:44:21 10° S 05:49:24 36° ESE 05:54:29 10° NE
Sakura Rocket 4.2 05:45:19 10° W 05:49:35 40° S 05:55:13 10° ESE
OAO 2 Rocket 3.4 05:45:42 10° W 05:50:37 69° N 05:55:32 10° E
Intelsat 5-1 Rocket 4.2 05:46:28 10° W 05:59:14 41° SSW 06:04:02 10° SE
Centaur D AC-29 3.6 05:47:24 10° W 06:26:02 61° SSW 06:31:26 10° ESE
